EHI
13 14 13 9 6 6 6 5 3 2 3 6 9 12 12 11 9 12 13 7 1 0 0 0 0 0 0 0 0 0 0 0 1 2 2 1 2 2
14 14 13 9 7 6 5 5 4 3 3 6 10 13 13 10 9 12 12 7 2 1 1 0 0 0 0 0 0 0 0 0 0 1 1 0 1 1
11 12 11 10 8 7 6 5 5 5 5 5 9 14 14 11 10 11 10 7 4 3 2 1 0 0 0 0 0 0 0 0 0 0 0 0 0 0
7 8 9 9 9 8 7 7 6 6 7 6 8 13 15 13 10 9 8 6 5 4 3 2 0 0 0 0 0 0 0 0 0 0 0 0 0 0
6 6 8 8 6 5 5 5 5 5 7 7 7 9 11 10 9 8 7 6 4 3 2 1 0 0 0 0 0 0 0 0 0 0 0 0 0 0
5 6 6 6 4 2 1 2 2 3 4 5 4 4 6 7 7 7 6 5 3 2 1 0 0 0 0 0 0 0 0 0 0 0 0 0 0 0
7 6 5 5 2 0 0 0 0 1 1 1 1 1 3 5 5 5 5 3 3 2 1 1 0 0 1 0 0 0 0 0 0 0 0 0 0 0
9 7 6 5 2 1 0 0 0 0 0 0 0 2 4 5 4 3 3 2 2 3 3 3 2 2 1 1 1 0 0 0 0 0 0 0 0 0
10 9 8 6 4 2 1 1 1 1 0 0 0 2 4 5 4 3 3 2 3 3 3 4 3 3 2 2 1 0 0 0 0 0 0 0 0 0
11 10 9 8 5 3 3 4 4 2 1 0 0 1 3 4 4 3 2 3 3 3 4 3 3 2 1 1 1 0 0 0 0 0 0 0 0 0
11 10 9 8 6 4 5 5 5 3 1 0 0 0 1 1 1 1 1 2 3 4 4 3 2 1 0 0 0 0 0 0 0 0 0 0 0 0
8 8 7 6 4 3 4 4 3 2 1 0 0 0 0 0 0 0 1 2 3 3 3 3 1 1 0 0 1 1 2 1 1 0 0 0 0 0
5 6 5 3 2 1 1 2 1 1 1 0 0 1 1 1 1 1 1 1 2 1 1 1 1 0 0 0 1 2 3 2 1 1 0 0 0 0
2 3 3 1 0 0 0 0 0 0 0 0 0 1 2 2 2 2 2 1 1 0 0 0 0 0 0 0 1 2 2 1 1 1 1 0 0 0
0 1 1 0 0 0 0 0 0 0 0 1 1 2 3 3 3 3 3 3 2 1 0 0 0 0 0 0 1 1 1 0 0 0 0 0 0 0
0 0 0 0 0 0 0 1 1 1 1 1 2 2 3 3 3 3 3 3 3 2 1 0 0 0 1 1 0 0 0 0 0 0 1 1 0 0
0 0 0 0 0 0 0 1 2 2 1 1 2 3 3 3 3 3 3 3 3 3 2 1 1 1 2 2 1 0 0 0 0 1 2 1 0 0
0 0 0 0 0 0 0 1 1 2 2 2 2 3 3 3 3 3 3 3 3 3 3 3 2 3 3 2 1 0 0 0 0 1 2 1 0 0
0 0 0 0 0 0 0 0 0 1 1 1 1 2 3 3 3 3 3 3 3 3 3 3 3 3 3 1 0 0 0 0 0 1 1 0 0 0
0 0 0 0 0 0 0 0 0 0 0 0 0 1 1 2 3 3 3 3 3 3 3 3 3 3 3 1 0 0 0 0 0 0 0 0 0 0
0 0 0 0 0 0 0 0 0 0 0 0 0 0 0 1 1 2 3 3 3 3 3 3 3 3 3 2 1 0 0 0 0 1 0 0 0 0
0 0 0 0 0 0 0 0 0 0 0 0 0 0 0 0 0 1 1 2 3 3 3 3 3 3 3 3 2 1 0 0 0 0 0 0 0 0
0 0 0 0 0 0 0 0 0 0 0 0 0 0 0 0 0 0 0 1 3 3 3 3 3 3 3 3 2 1 0 0 0 0 0 0 0 0
Wind_Speed
2 2 2 2 2 2 2 1 1 2 2 1 1 1 2 2 5 4 4 7 8 8 8 7 7 6 6 6 6 6 6 6 6 7 7 7 8 8
2 2 3 3 3 3 2 2 1 1 2 1 1 0 1 1 4 3 4 8 9 9 10 9 8 8 7 7 6 6 6 6 7 7 7 7 7 8
3 3 3 3 3 3 3 2 2 2 2 2 1 1 1 1 2 2 2 4 5 9 10 10 10 9 8 8 7 6 6 6 6 6 7 7 7 7
2 3 3 3 4 4 3 3 2 2 2 3 2 2 1 1 2 3 2 4 3 7 10 11 10 10 9 9 8 7 7 6 6 6 6 6 7 8
2 2 2 3 3 3 3 3 3 3 2 2 2 1 1 1 1 2 2 2 4 4 8 9 10 10 10 10 10 9 8 8 8 7 7 7 7 7
1 1 1 2 2 3 3 3 3 3 3 2 2 1 1 1 1 1 2 2 2 2 3 5 8 10 10 10 10 10 10 9 9 9 8 8 8 8
1 1 0 2 2 3 3 3 3 2 2 2 2 2 2 2 2 2 2 2 2 2 1 2 3 3 5 8 9 11 11 10 10 9 9 9 9 8
2 2 1 1 1 1 3 4 3 2 2 2 2 1 2 2 2 3 2 2 2 2 2 3 2 3 4 4 7 10 11 11 11 10 10 10 9 9
1 2 3 2 2 2 2 3 3 1 2 2 2 2 2 2 2 3 3 3 3 3 3 3 2 2 3 3 5 7 8 9 10 10 10 10 10 9
2 2 1 0 1 2 3 2 2 1 2 2 1 2 2 2 2 3 4 4 4 3 2 3 2 2 2 1 4 6 7 8 9 10 10 10 10 10
3 2 2 2 1 2 2 3 2 2 2 3 4 5 5 5 4 3 3 3 3 3 2 2 2 2 2 1 2 5 6 7 8 9 10 9 9 8
2 2 1 2 2 1 2 3 4 3 3 4 4 6 6 7 7 4 3 3 3 3 2 2 3 2 3 2 1 2 3 6 8 9 9 9 8 5
2 1 1 2 2 3 4 4 5 4 4 5 5 4 4 3 3 3 3 2 3 3 3 2 3 2 2 3 2 2 2 2 3 4 7 9 8 7
4 1 0 2 4 6 5 6 6 5 4 4 4 3 3 2 2 3 4 4 4 5 4 2 2 2 3 3 3 2 2 2 2 2 2 5 6 8
3 4 4 5 5 5 6 7 5 4 4 3 3 3 2 2 2 2 3 4 5 5 5 4 3 3 3 3 3 3 3 2 2 1 2 2 3 4
3 4 5 6 5 5 4 4 4 4 3 4 3 3 2 2 2 2 2 2 3 3 4 4 4 4 3 4 3 3 2 2 2 1 2 2 3 4
3 3 2 2 2 3 3 3 3 3 3 3 3 3 3 3 2 2 2 2 3 3 3 3 3 3 4 4 4 3 3 3 2 2 2 3 3 3
2 3 3 3 3 3 3 3 2 2 2 3 3 2 3 3 3 2 2 2 3 3 3 2 2 2 3 3 4 3 3 3 3 2 2 3 3 3
2 4 3 3 3 3 2 2 2 1 1 2 3 2 2 3 2 3 3 3 3 3 3 2 2 2 3 5 3 3 3 3 3 3 3 3 4 3
3 4 3 3 3 2 2 2 2 2 1 2 3 3 3 2 2 3 3 3 3 3 3 3 3 3 4 4 4 4 5 3 3 3 3 3 3 3
3 3 3 2 2 1 1 1 2 2 2 3 3 3 3 3 3 3 3 4 3 3 4 4 4 5 3 2 3 3 2 4 4 3 2 2 3 2
3 3 2 2 2 1 1 1 2 2 3 3 3 3 3 3 3 4 3 3 3 3 4 4 4 2 2 3 4 3 3 2 2 2 2 3 3 3
3 2 1 1 1 1 1 2 2 2 2 3 3 3 3 3 3 3 3 3 3 3 3 4 3 3 2 2 3 3 3 3 2 1 2 3 4 5
Wind_Direction
331 344 322 308 308 302 296 270 260 285 283 232 203 182 177 163 174 192 179 188 197 204 205 208 213 217 221 227 234 237 240 242 241 239 240 236 237 235
342 357 336 323 317 310 305 292 272 258 277 288 272 207 208 201 177 193 198 194 206 207 206 206 211 216 220 224 228 231 235 238 238 236 237 234 235 235
348 354 337 328 323 316 318 318 319 304 275 293 322 294 223 211 190 219 204 201 204 207 206 207 210 215 217 219 223 227 232 236 238 236 234 233 231 230
357 351 339 341 338 337 333 327 310 296 284 285 287 279 257 207 201 227 227 225 214 209 205 207 211 215 218 219 221 224 227 230 232 233 233 233 233 231
352 339 344 350 342 333 324 324 312 309 284 272 276 284 274 284 249 256 257 254 244 207 202 208 214 218 222 221 220 219 221 224 226 227 228 229 229 230
314 322 0 6 348 321 315 326 319 311 301 292 285 288 300 317 324 301 299 298 285 253 209 205 214 219 223 222 220 216 219 222 224 225 225 225 226 228
313 312 40 64 28 349 345 340 332 327 325 324 322 343 350 349 333 311 303 298 299 289 255 225 213 218 220 224 220 217 219 222 223 224 224 226 227 228
321 321 245 127 49 338 341 339 332 324 341 333 336 349 346 348 334 319 322 324 305 306 294 266 226 224 225 217 215 214 215 218 222 224 223 224 226 227
283 300 312 24 46 355 315 309 324 296 255 283 303 310 316 325 315 311 310 300 283 283 285 275 262 240 246 236 206 208 213 220 223 225 225 225 225 225
246 246 258 37 338 335 308 311 301 304 255 240 264 284 295 300 284 282 281 282 276 276 270 270 273 273 276 250 215 214 218 223 225 224 226 227 227 227
240 240 211 185 281 332 294 292 292 287 281 253 250 247 252 264 269 287 296 294 289 289 284 272 284 293 281 255 226 217 225 228 229 229 228 229 229 228
239 206 183 188 215 263 271 279 277 280 285 276 263 255 247 247 240 234 264 290 293 290 304 302 300 316 304 283 266 215 228 235 237 235 230 229 227 223
279 232 173 179 222 249 259 261 263 280 277 264 257 247 242 241 228 224 234 251 276 285 300 310 299 304 290 296 291 259 235 235 227 233 230 226 223 215
288 296 219 244 261 261 256 258 271 281 271 271 267 258 245 238 238 236 235 236 237 250 268 275 274 276 287 295 292 283 271 244 228 232 216 210 223 229
294 313 291 263 265 259 250 255 263 262 266 272 277 272 256 241 247 252 253 247 250 255 261 254 254 265 258 272 280 283 287 269 238 235 219 205 218 215
292 298 272 256 254 262 262 245 234 245 259 270 274 281 286 270 257 260 268 264 261 261 255 240 240 245 259 266 271 277 272 264 259 242 240 246 232 218
314 295 284 279 270 261 253 242 231 234 254 268 275 283 286 279 271 273 272 277 273 271 272 264 244 238 250 254 265 269 272 276 273 246 244 258 248 239
295 283 284 280 276 276 275 269 254 244 262 277 275 275 286 289 290 290 291 280 279 282 284 282 286 294 292 274 234 252 271 280 281 270 255 260 259 252
251 271 275 277 284 283 276 276 280 281 275 282 284 282 284 287 289 294 286 279 279 280 280 277 273 276 290 294 286 248 259 271 276 272 257 262 264 257
253 263 274 282 291 304 316 313 303 297 287 282 282 284 284 286 290 288 285 284 286 282 281 271 258 253 257 268 275 273 252 245 254 263 271 279 269 261
257 265 270 275 286 301 316 318 315 311 305 290 290 290 289 285 281 284 288 292 290 285 283 276 266 255 253 258 272 273 265 250 249 248 262 272 274 271
261 271 278 283 296 311 313 310 307 313 312 299 295 291 285 279 275 280 286 288 279 282 292 288 280 270 265 266 275 279 280 280 270 250 258 260 247 246
260 268 277 288 299 302 309 316 320 321 309 300 299 298 298 296 292 287 285 282 289 297 301 299 298 287 275 272 280 286 291 292 284 283 292 291 259 252